[[{"header":{"parameterUnit":"m.s-1","parameterCategory":1,"la1":30.2991,"la2":30.254,"lo1":-89.0895,"lo2":-89.0444,"dy":0.0017,"dx":0.0017,"nx":28,"ny":28,"refTime":"2023-04-12T21:00:00:Z","depth":0,"parameterNumber":2,"parameterNumberName":"U-component_of_WINDS"},"data":[0,0,0,0,0,0,0,0,0,0,0,0,0,0,0,0,0,0,0,0,0,0,0,0,0,0,0,0,0,0,0,0,0,0,0,0,0,0,0,0,0,0,0,0,0,0,0,0,0,0,0,0,0,0,0,0,0,0,2.2241,2.2242,0,2.2348,2.2349,2.235,2.2378,2.2377,2.2377,2.2376,2.2491,2.2495,2.2499,0,0,0,0,0,0,0,0,0,0,0,0,0,2.2067,2.207,2.2241,2.2242,2.2243,2.2348,2.2349,2.2351,2.2378,2.2377,2.2377,2.2376,2.249,2.2495,2.2499,0,0,0,0,0,0,0,0,0,0,0,0,0,2.2155,2.2071,2.224,2.227,2.2273,2.2347,2.2349,2.2351,2.2378,2.2377,2.2376,2.2375,2.2489,2.2494,2.25,2.2554,0,0,2.2517,2.2519,0,0,0,0,0,0,0,0,2.215,2.2162,2.2264,2.2268,2.2272,2.2348,2.233,2.2419,2.2379,2.2339,2.2376,2.2375,2.2445,2.2454,2.2477,2.2559,2.2564,2.2517,2.252,2.2523,2.2524,0,0,0,0,0,0,0,2.2144,2.2157,2.2283,2.2265,2.227,2.228,2.2291,2.2347,2.2396,2.2342,2.2344,2.2356,2.2447,2.2471,2.2479,2.2566,2.2517,2.2522,2.2525,2.2527,2.2702,2.2703,0,0,0,0,0,0,2.2132,2.2152,2.228,2.2286,2.2207,2.2284,2.2296,2.2325,2.2396,2.2405,2.2357,2.2357,2.2462,2.2473,2.2484,2.2553,2.2523,2.2528,2.2531,2.2701,2.2702,2.2704,0,0,0,0,0,0,2.2128,2.2143,2.2276,2.222,2.2237,2.2288,2.232,2.2328,2.2352,2.2407,2.2417,2.2372,2.2462,2.2476,2.2537,2.2558,2.253,2.2535,2.2699,2.2701,2.2703,2.2692,0,0,0,0,0,0,2.2123,2.2142,2.2161,2.222,2.224,2.2324,2.2321,2.233,2.236,2.2362,2.2424,2.2433,2.2462,2.2528,2.2542,2.2565,2.254,2.2698,2.27,2.2702,2.2691,2.2693,2.2696,0,0,0,0,0,2.2117,2.2154,2.2162,2.2177,2.2265,2.2325,2.2337,2.2368,2.2362,2.2383,2.2419,2.2431,2.2553,2.2534,2.255,2.2575,2.2696,2.2699,2.2702,2.269,2.2693,2.2696,0,0,0,0,0,0,2.2098,2.2162,2.2171,2.2229,2.2271,2.233,2.2357,2.237,2.2416,2.2416,2.2454,2.2468,2.2527,2.2557,2.2535,2.2633,2.2625,2.2631,2.261,2.2614,2.2616,2.2607,2.2544,0,0,0,0,0,2.21,2.2141,2.2197,2.2242,2.2263,2.2306,2.2334,2.2354,2.24,2.2419,2.2459,2.2505,2.2555,2.2586,2.2634,2.2696,2.2711,2.2721,2.2723,2.2725,2.273,2.2767,2.2773,2.2713,2.2713,2.2713,0,0,2.2105,2.2146,2.217,2.2239,2.2274,2.2319,2.2321,2.2367,2.2401,2.2427,2.2486,2.2517,2.2572,2.2634,2.2663,2.2661,2.275,2.2729,2.273,2.2734,2.2771,2.2776,2.2781,2.2715,2.2715,2.2715,0,0,2.2137,2.2171,2.2213,2.2249,2.2302,2.2331,2.2341,2.2399,2.242,2.248,2.2501,2.2543,2.2626,2.2665,2.2695,2.2745,2.2758,2.276,2.2772,2.2808,2.2813,2.2817,2.2836,2.2842,2.2765,2.2765,2.2765,0,2.2137,2.2202,2.2234,2.228,2.2311,2.2334,2.2379,2.2413,2.2479,2.2501,2.2498,2.2604,2.2642,2.2714,2.2726,2.275,2.2765,2.2752,2.2809,2.2814,2.2818,2.2837,2.2843,2.2764,2.2764,2.2764,2.2764,0,2.2201,2.2246,2.2275,2.2337,2.2372,2.2416,2.2457,2.2489,2.2507,2.2537,2.26,2.2647,2.2706,2.2725,2.2743,2.28,2.2797,2.2801,2.2794,2.2823,2.2841,2.2848,2.2764,2.2764,2.2764,2.2764,0,0,2.2222,2.2302,2.2312,2.2342,2.2404,2.244,2.2488,2.2544,2.2571,2.2618,2.266,2.2731,2.2735,2.277,2.2793,2.2824,2.2863,2.2825,2.2827,2.2831,2.293,2.2927,2.2934,2.2872,2.2874,2.2875,2.2926,0,2.2262,2.2345,2.2376,2.2445,2.2489,2.2514,2.2556,2.2599,2.263,2.2673,2.2708,2.2758,2.2759,2.2781,2.2813,2.2851,2.2883,2.2848,2.2914,2.2915,2.2898,2.2943,2.2939,2.2985,2.2933,2.2934,2.2935,0,2.2319,2.2364,2.2437,2.2496,2.2515,2.2552,2.2607,2.2648,2.2699,2.272,2.2759,2.2781,2.2835,2.2825,2.2901,2.2876,2.2906,2.2929,2.2932,2.2939,2.2926,2.2952,2.3,2.3007,2.2946,2.2945,2.2944,0,2.2327,2.2408,2.2462,2.2487,2.2556,2.2581,2.2612,2.2662,2.2695,2.2744,2.2766,2.2821,2.2852,2.2896,2.2933,2.2922,2.3006,2.2999,2.3026,2.3025,2.3041,2.304,2.3095,2.306,2.306,2.306,2.306,0,2.2368,2.2412,2.2467,2.25,2.2552,2.2588,2.2639,2.2671,2.2716,2.2759,2.2785,2.2824,2.2871,2.2918,2.2948,2.3007,2.302,2.304,2.3047,2.3037,2.3035,2.3056,2.3054,2.3062,2.3062,2.3061,2.3061,0,2.2386,2.2424,2.2485,2.2546,2.2563,2.2598,2.2651,2.2686,2.2718,2.2772,2.2786,2.2838,2.2894,2.2936,2.3009,2.303,2.3093,2.31,2.3074,2.3078,2.3102,2.31,2.3173,2.3186,2.3143,2.3143,2.3143,0,2.2409,2.2443,2.2508,2.2537,2.2567,2.2614,2.2648,2.2687,2.2721,2.2784,2.2812,2.2869,2.2917,2.3007,2.3052,2.3109,2.3118,2.3141,2.3127,2.3116,2.3119,2.3117,2.3121,2.3142,2.3142,2.3142,2.3143,0,2.2447,2.2464,2.251,2.2564,2.2603,2.2647,2.2692,2.2716,2.2763,2.2801,2.2858,2.2895,2.297,2.3028,2.3089,2.3124,2.3142,2.3147,2.3156,2.3146,2.3129,2.3139,2.3079,2.3145,2.3144,2.3144,2.3144,2.3144,2.2468,2.2501,2.2551,2.2603,2.2641,2.2683,2.2719,2.2756,2.2804,2.2866,2.2888,2.2947,2.3001,2.3085,2.312,2.3169,2.3169,2.3182,2.3186,2.3188,2.3187,2.3122,2.3181,2.3181,2.3181,2.3181,2.3181,0,2.2508,2.2542,2.2589,2.2651,2.2692,2.2705,2.2756,2.279,2.2841,2.2889,2.2936,2.3003,2.306,2.311,2.317,2.3199,2.3209,2.3214,2.3212,2.322,2.3184,2.317,2.3205,2.3205,2.3205,2.3205,2.3205,2.3205,2.2533,2.2588,2.2613,2.2689,2.2724,2.2781,2.2809,2.2849,2.2888,2.2961,2.3007,2.304,2.309,2.3153,2.3207,2.3221,2.3242,2.3244,2.326,2.3225,2.3222,2.3219,2.3206,2.3248,2.3248,2.3292,2.3292,2.3292]},{"header":{"parameterUnit":"m.s-1","parameterCategory":1,"la1":30.2991,"la2":30.254,"lo1":-89.0895,"lo2":-89.0444,"dy":0.0017,"dx":0.0017,"nx":28,"ny":28,"refTime":"2023-04-12T21:00:00:Z","depth":0,"parameterNumber":3,"parameterNumberName":"V-component_of_WINDS"},"data":[0,0,0,0,0,0,0,0,0,0,0,0,0,0,0,0,0,0,0,0,0,0,0,0,0,0,0,0,0,0,0,0,0,0,0,0,0,0,0,0,0,0,0,0,0,0,0,0,0,0,0,0,0,0,0,0,0,0,3.9822,3.9824,0,3.9981,3.9983,3.9985,4.0026,4.0025,4.0024,4.0024,4.0179,4.0184,4.0189,0,0,0,0,0,0,0,0,0,0,0,0,0,3.9547,3.9552,3.9822,3.9824,3.9826,3.9981,3.9983,3.9985,4.0026,4.0025,4.0024,4.0023,4.0177,4.0183,4.0189,0,0,0,0,0,0,0,0,0,0,0,0,0,3.9682,3.9554,3.9822,3.9866,3.9871,3.998,3.9983,3.9986,4.0027,4.0025,4.0024,4.0023,4.0175,4.0182,4.019,4.0264,0,0,4.0213,4.0216,0,0,0,0,0,0,0,0,3.9674,3.9692,3.9857,3.9863,3.9869,3.9983,3.9943,4.0079,4.0027,3.9967,4.0024,4.0022,4.0114,4.0127,4.0159,4.0272,4.0278,4.0214,4.0218,4.0221,4.0223,0,0,0,0,0,0,0,3.9665,3.9686,3.9885,3.986,3.9867,3.9875,3.9892,3.9969,4.0046,3.9973,3.9976,3.9995,4.0117,4.0152,4.0163,4.0281,4.0213,4.022,4.0225,4.0228,4.0458,4.046,0,0,0,0,0,0,3.9649,3.9678,3.988,3.989,3.9767,3.9881,3.9901,3.9947,4.0046,4.006,3.9996,3.9996,4.014,4.0154,4.0169,4.026,4.0221,4.0228,4.0233,4.0457,4.0459,4.046,0,0,0,0,0,0,3.9643,3.9667,3.9873,3.9785,3.9812,3.9887,3.9939,3.9951,3.9986,4.0063,4.0077,4.0017,4.0139,4.0158,4.024,4.0266,4.0232,4.0238,4.0455,4.0457,4.046,4.0445,0,0,0,0,0,0,3.9635,3.9665,3.9696,3.9785,3.9816,3.9945,3.9941,3.9955,4.0,4.0002,4.0087,4.01,4.014,4.0229,4.0247,4.0276,4.0244,4.0453,4.0456,4.0459,4.0443,4.0447,4.0449,0,0,0,0,0,3.9625,3.9684,3.9697,3.9721,3.9857,3.9946,3.9964,4.001,4.0002,4.0032,4.0081,4.0097,4.0261,4.0237,4.0258,4.0289,4.0451,4.0455,4.0459,4.0442,4.0446,4.0449,0,0,0,0,0,0,3.9594,3.9697,3.9712,3.9803,3.9866,3.9953,3.9993,4.0013,4.0078,4.0076,4.0129,4.0148,4.0225,4.0266,4.0237,4.0365,4.0356,4.0364,4.0336,4.034,4.0343,4.0331,4.0251,0,0,0,0,0,3.9598,3.9665,3.975,3.9821,3.9852,3.9917,3.9957,3.9988,4.0054,4.008,4.0135,4.0197,4.0262,4.0303,4.0368,4.045,4.0467,4.0481,4.0484,4.0486,4.0492,4.0536,4.0542,4.0472,4.0472,4.0472,0,0,3.9607,3.9671,3.9709,3.9816,3.9869,3.9933,3.9939,4.0008,4.0055,4.009,4.0171,4.0213,4.0285,4.0366,4.0405,4.0402,4.0515,4.0491,4.0492,4.0497,4.054,4.0546,4.0552,4.0475,4.0474,4.0474,0,0,3.9654,3.9711,3.9776,3.9828,3.9908,3.995,3.9965,4.005,4.008,4.0162,4.0189,4.0245,4.0356,4.0406,4.0445,4.051,4.0525,4.0529,4.0544,4.0585,4.0591,4.0596,4.0616,4.0623,4.0535,4.0535,4.0535,0,3.9654,3.9755,3.9806,3.9873,3.9918,3.9954,4.0018,4.0065,4.0161,4.0189,4.0186,4.0325,4.0376,4.0468,4.0484,4.0516,4.0532,4.0519,4.0586,4.0592,4.0597,4.0617,4.0625,4.0534,4.0534,4.0534,4.0534,0,3.9749,3.9818,3.9861,3.9954,4.0003,4.0068,4.0126,4.017,4.0195,4.0237,4.0318,4.038,4.0457,4.0481,4.0506,4.0576,4.0572,4.0577,4.0568,4.0603,4.0622,4.0631,4.0534,4.0534,4.0534,4.0534,0,0,3.9782,3.9902,3.9916,3.9958,4.0048,4.0101,4.0165,4.0242,4.0277,4.0341,4.0395,4.0488,4.0492,4.0537,4.0568,4.0605,4.0648,4.0605,4.0607,4.0609,4.0725,4.072,4.0728,4.0659,4.0661,4.0663,4.0719,0,3.9839,3.996,4.0007,4.0104,4.0166,4.0201,4.0257,4.0316,4.0356,4.0413,4.0456,4.0521,4.0523,4.055,4.0588,4.0635,4.0672,4.0631,4.0707,4.0709,4.0687,4.0739,4.0734,4.0784,4.0727,4.0728,4.0729,0,3.9923,3.9989,4.0093,4.0173,4.0201,4.0251,4.0324,4.0379,4.0445,4.0471,4.0521,4.0549,4.0615,4.0603,4.0693,4.0664,4.0697,4.0724,4.0727,4.0735,4.072,4.0746,4.0802,4.0808,4.0742,4.0741,4.074,0,3.9934,4.0049,4.0125,4.016,4.0256,4.029,4.0331,4.0396,4.0438,4.0501,4.0528,4.0597,4.0634,4.0684,4.0729,4.0717,4.0813,4.0806,4.0834,4.0833,4.0852,4.085,4.0912,4.0876,4.0876,4.0876,4.0876,0,3.9992,4.0053,4.0131,4.0178,4.0246,4.0298,4.0363,4.0406,4.0464,4.0517,4.055,4.0599,4.0656,4.071,4.0745,4.0812,4.0829,4.085,4.0858,4.0847,4.0844,4.0868,4.0865,4.0878,4.0878,4.0877,4.0877,0,4.0015,4.007,4.0155,4.0239,4.0262,4.0308,4.0378,4.0423,4.0465,4.0532,4.055,4.0614,4.068,4.073,4.0815,4.0839,4.0909,4.0919,4.0888,4.0891,4.0917,4.0913,4.0995,4.1008,4.0965,4.0965,4.0965,0,4.0048,4.0096,4.0185,4.0225,4.0266,4.0329,4.0372,4.0424,4.0467,4.0545,4.058,4.0649,4.0707,4.081,4.0862,4.0927,4.0937,4.0961,4.0947,4.0932,4.0935,4.0931,4.0934,4.0963,4.0963,4.0963,4.0963,0,4.0099,4.0124,4.0187,4.0259,4.031,4.0369,4.0427,4.0457,4.0518,4.0565,4.0634,4.0679,4.0766,4.0833,4.0903,4.0941,4.0961,4.0968,4.0977,4.0965,4.0944,4.0953,4.0891,4.0965,4.0965,4.0965,4.0965,4.0965,4.0127,4.0171,4.024,4.0308,4.0358,4.0412,4.0458,4.0505,4.0565,4.0642,4.0668,4.0738,4.08,4.0896,4.0936,4.0989,4.0989,4.1004,4.1007,4.101,4.1008,4.0937,4.1002,4.1002,4.1002,4.1002,4.1002,0,4.0179,4.0225,4.0287,4.0369,4.0422,4.0439,4.0504,4.0546,4.0609,4.0667,4.0723,4.0801,4.0865,4.0922,4.0989,4.102,4.1031,4.1036,4.1033,4.1041,4.1005,4.0989,4.1026,4.1026,4.1026,4.1026,4.1026,4.1026,4.0212,4.0286,4.0318,4.0416,4.0461,4.0532,4.0568,4.0616,4.0663,4.0749,4.0803,4.0841,4.0898,4.0968,4.1027,4.1042,4.1063,4.1066,4.1082,4.1047,4.1044,4.1041,4.1026,4.107,4.107,4.1114,4.1114,4.1114]}]]